Regional Weather Roundup
Issued by NWS

Home | Current Version | Previous Version | Text Only | Print | Product List | Glossary On
Versions: 1 2 3 4 5 6 7 8 9 10 11 12 13 14 15 16 17 18 19 20 21 22 23 24 25 26 27 28 29 30 31 32 33 34 35 36 37 38 39 40 41 42 43 44 45 46 47 48 49 50
000
ASUS43 KLOT 220700
RWRIL

ILLINOIS REGIONAL WEATHER ROUNDUP
NATIONAL WEATHER SERVICE CHICAGO/ROMEOVILLE IL
200 AM CDT FRI AUG 22 2014

NOTE: "FAIR" INDICATES FEW OR NO CLOUDS BELOW 12,000 FEET WITH NO
SIGNIFICANT WEATHER AND/OR OBSTRUCTIONS TO VISIBILITY.

* THESE STATIONS ARE NOT UNDER NWS QUALITY CONTROL. THEY ALSO MAY NOT
  REPORT WEATHER SUCH AS PRECIPITATION OR FOG.

ILZ001-002-007-009-015-016-024-220800-
NORTHWEST ILLINOIS

CITY           SKY/WX    TMP DP  RH WIND       PRES   REMARKS
MOLINE         FOG       73  71  93 SE5       29.87F VSB 1
STERLING*      PTCLDY    73  72  94 CALM      29.88F
$$

ILZ003-004-008-010-011-017-018-220800-
NORTH CENTRAL ILLINOIS

CITY           SKY/WX    TMP DP  RH WIND       PRES   REMARKS
ROCKFORD       MOCLDY    74  72  93 E5        29.90F FOG
$$

ILZ005-006-012>014-019>023-220800-
NORTHEAST ILLINOIS

CITY           SKY/WX    TMP DP  RH WIND       PRES   REMARKS
CHICAGO-OHARE  TSTM      74  70  87 SE8       29.89F FOG
CHICAGO-MIDWAY TSTM      75  72  90 N10       29.91S FOG
AURORA         CLOUDY    74  71  91 NE3       29.92S
WAUKEGAN       FOG       71  70  96 CALM      29.90F VSB 1/4
DUPAGE AIRPORT TSTM      74  73  97 S10       29.91S VSB 1
WHEELING       HVY RAIN  75  73  93 NW3       29.93R FOG
NORTHERLY ISL    N/A     74  71  91 NW6         N/A
$$

LMZ740>746-220800-
SOUTHERN LAKE MICHIGAN

STATION/POSITION SKY/WX   TEMP    WIND        PRES    VSBY  WAVE
                          AIR SEA DIR/SP/G                  HT/PER
                          (F)     (DEG/KT/KT) (MB)    (MI)  (FT/S)
SOUTHERN BUOY              69 69   70/  4/  6 1013.8F         0
WAUKEGAN HARBOR            71        CALM       N/A
HARRISON CRIB              74     170/  7/  8   N/A
BURNHAM HARBOR             73     300/  5/  8   N/A
CALUMET HARBOR             73     110/  9/ 11 1011.6F
MICHIGAN CITY              72     140/  9/ 13   N/A
MICHIGAN CITY 6N           72 71  240/  2/  4   N/A           1
ST. JOSEPH                 71 71  130/  2/  4   N/A           0
$$

ILZ025>027-034>036-040-047-049-050-058-095>099-220800-
WEST-CENTRAL ILLINOIS

CITY           SKY/WX    TMP DP  RH WIND       PRES   REMARKS
QUINCY         CLEAR     78  73  84 SW9       29.90F HX  81
MACOMB*        MOCLDY    78  75  91 W9        29.92S HX  80
$$

ILZ028>032-037-038-041>044-048-051>054-059>061-220800-
CENTRAL ILLINOIS

CITY           SKY/WX    TMP DP  RH WIND       PRES   REMARKS
DECATUR        CLEAR     79  75  87 SW13      29.93F HX  83
PEORIA         MOCLDY    80  75  84 S7        29.88F HX  85
SPRINGFIELD    CLEAR     81  76  84 S8        29.91F HX  87
TAYLORVILLE    NOT AVBL
$$

ILZ033-039-045-046-055>057-062-063-220800-
EAST-CENTRAL ILLINOIS

CITY           SKY/WX    TMP DP  RH WIND       PRES   REMARKS
CHAMPAIGN      PTCLDY    77  75  93 SW9       29.93F
MATTOON        CLEAR     77  74  90 S9        29.93F
$$

ILZ079-100>102-220800-
SOUTHWEST ILLINOIS

CITY           SKY/WX    TMP DP  RH WIND       PRES   REMARKS
BELLEVILLE     CLEAR     78  76  91 VRB1      29.95F HX  82
CAHOKIA*       CLEAR     83  73  72 SW8       29.95F HX  89
$$

ILZ064>066-069>071-074>076-080>082-084>086-088>090-092>094-220800-
SOUTH-CENTRAL ILLINOIS

CITY           SKY/WX    TMP DP  RH WIND       PRES   REMARKS
CARBONDALE     CLEAR     78  72  81 S7        29.99F HX  80
MT. VERNON     CLEAR     77  72  83 SW8       29.98F
SALEM*         CLEAR     80  75  86 S8        29.96F HX  84
$$

ILZ067-068-072-073-078-083-087-091-220800-
SOUTHEAST ILLINOIS

CITY           SKY/WX    TMP DP  RH WIND       PRES   REMARKS
LAWRENCEVILLE  CLEAR     75  73  93 S6        29.96F
HARRISBURG*    CLEAR     79  75  88 SW8       30.01F HX  82
ROBINSON*      CLEAR     78  75  91 SW9       29.95F HX  81
$$

ABBREVIATIONS USED IN REMARKS
   TC - TEMPERATURE IN CELSIUS
  WCI - WIND CHILL INDEX
   HX - HEAT INDEX
  VSB - VISIBILITY
$$



USA.gov is the U.S. government's official web portal to all federal, state and local government web resources and services.